This is the latest recevied weather packets stored in our database for station/object EA1EME-3. If no packets are shown the sender has not sent any weather packets the latest 10 day(s).
| Time | Temp. | Humidity | Pressure | Rain* | Wind** | Luminosity | Snow |
|---|---|---|---|---|---|---|---|
| 1787778534 | 18.33° C | 67% | 1008 hPa | - | - | - | - |
| 1787777332 | 18.33° C | 67% | 1008 hPa | - | - | - | - |
| 1787776130 | 18.33° C | 67% | 1008 hPa | - | - | - | - |
| 1787774928 | 19.44° C | 68% | 1008 hPa | - | - | - | - |
| 1787773726 | 20.56° C | 65% | 1009 hPa | - | - | - | - |
| 1787772525 | 21.11° C | 65% | 1007 hPa | - | - | - | - |
| 1787771323 | 22.22° C | 63% | 1006 hPa | - | - | - | - |
| 1787770121 | 22.22° C | 62% | 1006 hPa | - | - | - | - |
| 1787768919 | 22.78° C | 62% | 1006 hPa | - | - | - | - |
| 1787767717 | 22.78° C | 61% | 1006 hPa | - | - | - | - |
| 1787766515 | 22.78° C | 60% | 1006 hPa | - | - | - | - |
| 1787765313 | 23.89° C | 60% | 1006 hPa | - | - | - | - |
| 1787764111 | 23.89° C | 59% | 1006 hPa | - | - | - | - |
| 1787762909 | 24.44° C | 56% | 1006 hPa | - | - | - | - |
| 1787761707 | 23.33° C | 58% | 1005 hPa | - | - | - | - |
| 1787760505 | 22.78° C | 56% | 1005 hPa | - | - | - | - |
| 1787759303 | 22.78° C | 54% | 1005 hPa | - | - | - | - |
| 1787758101 | 23.33° C | 51% | 1005 hPa | - | - | - | - |
| 1787756899 | 23.89° C | 58% | 1005 hPa | - | - | - | - |
| 1787755697 | 22.22° C | 65% | 1005 hPa | - | - | - | - |
| 1787754496 | 22.22° C | 67% | 1006 hPa | - | - | - | - |
| 1787753294 | 22.22° C | 66% | 1006 hPa | - | - | - | - |
| 1787752091 | 21.67° C | 68% | 1006 hPa | - | - | - | - |
| 1787750890 | 21.67° C | 67% | 1006 hPa | - | - | - | - |
| 1787749688 | 21.67° C | 66% | 1007 hPa | - | - | - | - |
* Rain since midnight (hover to see other rain measurements)
** Current wind speed in m/s (hover to see current wind gust speed)